Wind_Speed
27 26 25 22 19 16 14 13 17 15 12 10 8 8 7 6 5 6 5 6 5 6
28 28 27 24 24 16 14 13 15 15 16 15 9 8 8 7 7 6 7 7 7 7
30 29 26 23 21 21 18 16 18 19 23 19 23 20 18 10 11 10 10 9 7 7
32 30 28 27 26 24 21 21 22 24 24 24 22 19 19 18 12 12 11 10 9 9
33 33 32 31 29 28 26 27 28 26 25 24 21 20 21 16 13 14 13 11 12 12
34 35 36 34 31 30 31 31 30 29 28 27 25 24 23 19 17 15 14 13 14 14
34 35 34 33 33 34 34 34 34 33 30 24 25 21 21 19 17 17 16 15 14 15
33 32 30 29 30 29 32 31 30 29 25 21 22 22 23 20 18 18 17 17 14 17
31 31 29 28 28 29 25 24 25 25 23 20 21 22 24 21 18 20 19 19 16 17
28 28 27 26 28 29 29 30 32 28 24 20 20 20 23 24 21 20 20 21 17 17
26 25 25 26 28 28 27 29 27 25 23 21 19 19 21 20 24 22 21 20 18 19
27 26 24 25 27 27 24 23 26 25 21 20 18 16 18 23 22 22 22 21 23 20
25 24 24 23 21 20 20 20 20 22 21 20 20 19 20 24 23 22 22 20 21 23
22 21 19 18 18 18 20 19 19 19 19 23 22 20 19 23 20 20 19 19 19 22
Wind_Direction
208 214 219 217 226 212 218 201 173 183 186 190 200 203 200 224 221 230 223 240 262 291
204 210 215 218 209 224 216 196 173 184 182 183 200 212 221 230 228 242 244 249 245 253
203 207 214 210 207 213 209 209 183 188 189 192 186 191 199 217 229 229 242 244 247 260
203 205 207 212 208 209 206 194 190 198 195 202 198 185 197 192 215 218 230 244 256 254
202 201 204 209 207 205 201 195 196 197 201 201 199 189 199 206 217 218 227 233 243 251
203 202 204 204 203 203 197 195 197 197 201 201 197 196 203 203 212 219 224 229 238 245
204 205 205 204 203 202 199 196 196 199 200 204 200 203 205 204 210 219 225 229 239 248
201 205 205 204 208 206 204 203 197 195 201 205 207 209 204 209 211 220 224 230 231 243
196 197 199 206 211 206 207 208 204 201 206 209 210 212 206 202 215 222 223 230 226 244
188 191 199 208 215 201 203 205 203 201 206 214 215 215 213 214 218 222 222 232 227 233
183 190 198 211 209 205 208 210 206 205 210 216 221 221 216 219 222 229 234 229 229 229
189 193 197 205 210 208 209 208 214 218 222 222 221 230 231 227 226 232 233 236 234 233
184 189 197 203 207 203 204 210 210 220 225 231 234 235 241 229 226 231 234 231 233 238
179 184 191 190 191 184 187 193 208 216 221 232 235 233 234 228 225 235 230 239 235 236
Height
791 796 798 799 800 804 805 808 811 817 822 825 828 829 829 832 833 834 834 835 835 834
784 788 789 793 796 800 802 804 808 813 816 817 825 828 830 829 830 833 834 833 834 834
775 780 784 788 791 795 798 802 804 806 804 812 806 811 819 825 828 829 830 829 829 831
767 773 778 782 785 789 793 796 798 800 802 804 808 807 815 812 819 824 827 828 828 828
759 764 769 773 777 782 786 788 791 794 798 800 803 804 808 814 816 819 821 823 826 827
750 755 758 763 769 774 777 780 784 787 791 795 798 799 805 807 812 815 818 819 821 823
741 746 752 756 761 765 769 772 775 779 786 790 793 797 801 803 807 810 812 815 817 819
733 741 747 752 757 761 766 770 773 777 783 786 789 792 795 800 801 805 808 811 812 815
726 734 741 747 751 758 766 771 772 775 778 782 784 786 789 791 796 800 803 806 806 807
721 729 736 742 746 749 755 759 760 765 770 776 779 782 783 786 791 793 796 801 801 802
716 724 731 735 739 743 748 753 759 761 767 771 775 778 779 781 787 789 791 793 795 796
712 719 725 729 732 738 744 750 756 760 764 766 768 773 775 779 782 784 786 789 789 791
708 715 720 725 731 735 740 747 751 754 757 762 765 766 769 772 775 777 779 781 783 784
706 712 718 722 727 730 735 740 747 750 751 757 760 761 764 767 769 772 774 776 778 777